Regional Weather Roundup
Issued by NWS

Home | Current Version | Previous Version | Graphics & Text | Print | Product List | Glossary On
Versions: 1 2 3 4 5 6 7 8 9 10 11 12 13 14 15 16 17 18 19 20 21 22 23 24 25 26 27 28 29 30 31 32 33 34 35 36 37 38 39 40 41 42 43 44 45 46 47 48 49 50
000
ASUS43 KMPX 231510
RWRMN
WEATHER ROUNDUP FOR MINNESOTA
NATIONAL WEATHER SERVICE TWIN CITIES/CHANHASSEN MN
1000 AM CDT WED JUL 23 2014


NOTE: "FAIR" INDICATES FEW OR NO CLOUDS BELOW 12,000 FEET WITH NO
SIGNIFICANT WEATHER AND/OR OBSTRUCTIONS TO VISIBILITY. N/A MEANS
CURRENT SKY AND/OR WEATHER CONDITIONS ARE NOT AVAILABLE.

MNZ060>063-068>070-231600-
   Twin Cities Metro

CITY           SKY/WX    TMP DP  RH WIND       PRES   REMARKS
TWIN CITIES    MOSUNNY   75  54  47 VRB5      30.25F
ST PAUL        SUNNY     74  56  53 CALM      30.25S
CRYSTAL        SUNNY     76  55  48 MISG      30.24S
BLAINE         MOSUNNY   73  61  64 NW3       30.25S
LAKEVILLE      SUNNY     72  55  56 NE5       30.25S
EDEN PRAIRIE   SUNNY     75  57  53 N5        30.24F
SOUTH ST PAUL  SUNNY     74  55  51 NW5       30.24S
LAKE ELMO      FAIR      72  59  64 W3        30.26S
$$
MNZ001>005-007-008-013>017-022>024-027-028-231600-
   Northwest Minnesota

CITY           SKY/WX    TMP DP  RH WIND       PRES   REMARKS
BEMIDJI        MOSUNNY   67  56  67 N6        30.29S
HALLOCK        MOSUNNY   66  57  72 NE7       30.31F
ROSEAU         MOSUNNY   66  61  82 CALM      30.31S
WARROAD        MOSUNNY   66  59  77 NE6       30.31S
THIEF RVR FALL MOSUNNY   63  57  82 NW6       30.31S
CROOKSTON      MOSUNNY   66  57  72 N8        30.31F
FOSSTON        MOSUNNY   64  55  72 W3        30.31S
DETROIT LAKES  MOSUNNY   68  57  68 NE3       30.31F
MOORHEAD       PTSUNNY   66  64  94 CALM      30.31R
PARK RAPIDS    MOSUNNY   69  52  54 N9        30.29F
$$
MNZ006-009>011-018-025>026-231600-
   North Central Minnesota

CITY           SKY/WX    TMP DP  RH WIND       PRES   REMARKS
BAUDETTE       PTSUNNY   67  56  67 CALM      30.32R
FLAG ISLAND    PTSUNNY   64  52  63 N7        30.30S
INTL FALLS     SUNNY     66  51  58 NE8       30.30S
WASKISH        MOSUNNY   68  55  64 CALM      30.29F
BIG FORK       MOSUNNY   66  55  68 N1        30.30S
LONGVILLE      PTSUNNY   66  59  77 CALM      30.28F
GRAND RAPIDS   MOSUNNY   66  54  63 CALM      30.29S
CRANE LAKE     SUNNY     64  52  63 N3        30.30S
ORR            SUNNY     63  52  67 CALM      30.27S
COOK           MOSUNNY   64  54  68 N5        30.29S
$$
MNZ012-019>021-037-231600-
   Northeast Minnesota

CITY           SKY/WX    TMP DP  RH WIND       PRES   REMARKS
DULUTH         MOSUNNY   69  53  56 N8        30.25F
ELY            MOSUNNY   63  54  72 NW3       30.27F
HIBBING        MOSUNNY   70  53  54 N9        30.28F
EVELETH        SUNNY     64  52  63 NW8       30.28S
DULUTH HARBOR  MOSUNNY   66  57  72 CALM      30.25F
TWO HARBORS    MOSUNNY   68  52  56 NW5       30.23F
SILVER BAY     MOSUNNY   66  57  72 NW5       30.23F
GRAND MARAIS     N/A     57  51  80 CALM      30.24R
G MARAIS ARPRT PTSUNNY   63  50  63 NW5       30.27R
$$
MNZ029>031-032-039>041-046>048-054>057-064-231600-
   West Central Minnesota

CITY           SKY/WX    TMP DP  RH WIND       PRES   REMARKS
FERGUS FALLS   SUNNY     72  55  56 CALM      30.29F
WHEATON        MOSUNNY   70  57  64 NE5       30.30F
MORRIS         SUNNY     73  61  64 E6        30.28F
ALEXANDRIA     SUNNY     71  55  56 VRB3      30.31R
ELBOW LAKE     FAIR      70  58  65 NE3       30.29F
WADENA         PTSUNNY   70  55  60 NE3       30.29S
GLENWOOD       SUNNY     70  57  64 NE3       30.30S
APPLETON       SUNNY     75  55  50 E6        30.28S
BENSON         SUNNY     73  57  56 E5        30.28S
ORTONVILLE     SUNNY     73  55  53 E6        30.28F
MADISON        SUNNY     73  61  64 E7        30.28F
WILLMAR        FAIR      73  54  49 NE7       30.29F
$$
MNZ033>034-036-042>043-049>051-058-059-231600-
   Central Minnesota

CITY           SKY/WX    TMP DP  RH WIND       PRES   REMARKS
ST CLOUD       SUNNY     76  56  49 VRB6      30.26F
SAUK CENTRE    FAIR      71  56  59 NE6       30.29S
PAYNESVILLE    SUNNY     69  54  59 NW7       30.28F
AITKIN         MOSUNNY   70  61  73 CALM      30.26F
PINE RIVER     MOSUNNY   66  57  72 NW6       30.31S
BRAINERD       SUNNY     68  53  58 N7        30.27F
STAPLES        MOSUNNY   70  54  56 NE6       30.29S
LONG PRAIRIE   FAIR      68  54  60 N5        30.29F
LITTLE FALLS   SUNNY     68  54  60 N3        30.28S
LITCHFIELD     SUNNY     73  61  64 NE5       30.28S
BUFFALO        SUNNY     73  56  56 CALM      30.26F
MAPLE LAKE     SUNNY     73  60  63 N5        30.27F
$$
MNZ037-044-045-052-053-231600-
   East Central Minnesota

CITY           SKY/WX    TMP DP  RH WIND       PRES   REMARKS
PRINCETON      SUNNY     75  61  60 NW7       30.25F
MORA           SUNNY     70  55  60 NW7       30.26F
CAMBRIDGE      SUNNY     73  59  60 N3        30.23F
RUSH CITY      SUNNY     68  58  69 CALM      30.25F
MOOSE LAKE     MOSUNNY   68  55  64 NE3       30.24S
HINCKLEY       FAIR      70  59  68 NW3       30.25S
CLOQUET        MOSUNNY   68  54  60 N6        30.26S
MCGREGOR       MOSUNNY   66  57  72 N3        30.28S
$$
MNZ071>073-080-081-089-090-097-098-231600-
   Southwest Minnesota

CITY           SKY/WX    TMP DP  RH WIND       PRES   REMARKS
MONTEVIDEO     SUNNY     75  61  60 E5        30.29F
GRANITE FALLS  SUNNY     71  58  63 NE3       30.30S
CANBY          SUNNY     70  58  66 E5        30.29F
MARSHALL       SUNNY     72  57  60 CALM      30.28S
REDWOOD FALLS  SUNNY     74  57  55 VRB5      30.27F
OLIVIA         SUNNY     73  57  56 E5        30.27F
PIPESTONE      SUNNY     72  54  53 E8        30.29S
WINDOM         SUNNY     72  57  60 NE8       30.27F
WORTHINGTON    SUNNY     70  57  64 NE9       30.29F
JACKSON        SUNNY     70  57  64 NE7       30.27F
TRACY          SUNNY     70  60  68 NE5       30.28F
SLAYTON        SUNNY     71  55  57 CALM      30.30S
$$
MNZ065>067-074>077-082>085-091>093-231600-
   South Central Minnesota

CITY           SKY/WX    TMP DP  RH WIND       PRES   REMARKS
MANKATO        SUNNY     72  57  60 NE7       30.26S
NEW ULM        SUNNY     72  57  60 NE5       30.27S
ST JAMES       SUNNY     72  61  68 CALM      30.27F
FAIRMONT       MOSUNNY   72  57  60 NE5       30.26F
GLENCOE        SUNNY     73  55  53 N6        30.26F
FARIBAULT      SUNNY     75  57  53 N5        30.26F
OWATONNA       SUNNY     72  59  64 CALM      30.26S
WASECA         SUNNY     72  57  60 CALM      30.27F
ALBERT LEA     SUNNY     73  57  56 CALM      30.25F
$$
MNZ078>079-086>088-094>096-231600-
   Southeast Minnesota

CITY           SKY/WX    TMP DP  RH WIND       PRES   REMARKS
ROCHESTER      SUNNY     72  59  63 N5        30.26F
RED WING       SUNNY     75  55  50 NW3       30.23F
STANTON        SUNNY     73  58  58 N5        30.25S
DODGE CENTER   MOSUNNY   72  63  73 N3        30.26S
WINONA         SUNNY     73  61  64 NE3       30.24S
AUSTIN         SUNNY     72  59  64 CALM      30.26R
PRESTON        SUNNY     69  62  78 NE5       30.26S
$$
ABBREVIATIONS USED IN REMARKS
   TC - TEMPERATURES IN CELSIUS
  WCI - WIND CHILL INDEX
   HX - HEAT INDEX
  VSB - VISIBILITY
$$


USA.gov is the U.S. government's official web portal to all federal, state and local government web resources and services.